EST,Max TemperatureF,Mean TemperatureF,Min TemperatureF,Max Dew PointF,MeanDew PointF,Min DewpointF,Max Humidity, Mean Humidity, Min Humidity, Max Sea Level PressureIn, Mean Sea Level PressureIn, Min Sea Level PressureIn, Max VisibilityMiles, Mean VisibilityMiles, Min VisibilityMiles, Max Wind SpeedMPH, Mean Wind SpeedMPH, Max Gust SpeedMPH,PrecipitationIn, CloudCover, Events, WindDirDegrees
2013-11-1,70,65,60,63,59,53,87,75,63,29.82,29.66,29.54,10,9,2,35,17,52,0.04,7,Rain,214
2013-11-2,66,59,52,52,47,44,89,69,48,29.73,29.67,29.61,10,10,10,10,4,14,0.00,6,,225
2013-11-3,54,44,34,44,32,15,80,59,37,30.39,30.07,29.75,10,10,10,21,11,25,0.00,5,,359
2013-11-4,45,37,28,24,18,14,72,50,28,30.71,30.61,30.45,10,10,10,17,9,22,0.00,1,,14
2013-11-5,50,38,25,33,27,21,81,60,39,30.71,30.65,30.54,10,10,10,10,3,13,0.00,3,,51
2013-11-6,61,49,37,50,42,33,96,73,49,30.53,30.33,30.09,10,10,2,20,7,24,0.00,4,,198
2013-11-7,65,53,40,61,53,29,100,81,62,30.07,29.87,29.70,10,8,2,18,10,28,0.34,7,Rain,234
2013-11-8,49,41,33,33,27,19,89,64,38,30.13,29.97,29.86,10,10,10,25,10,32,0.00,2,,278
2013-11-9,46,38,29,30,24,19,78,56,34,30.24,30.17,30.06,10,10,10,16,6,24,0.00,5,,253
2013-11-10,59,50,40,40,36,32,76,57,37,30.02,29.87,29.75,10,10,10,22,7,29,0.01,5,Rain,237
2013-11-11,53,46,39,36,28,24,67,51,35,30.13,30.03,29.93,10,10,10,25,10,39,0.00,5,,253
2013-11-12,52,40,28,37,26,14,85,66,46,30.21,30.06,29.91,10,9,1,21,10,26,0.05,8,Rain-Snow,311
2013-11-13,38,31,24,15,13,9,63,48,32,30.30,30.25,30.21,10,10,10,17,8,24,0.00,0,,297
2013-11-14,53,40,26,26,18,14,62,44,26,30.20,30.14,30.08,10,10,10,18,9,23,0.00,3,,236
2013-11-15,60,47,33,39,27,14,92,56,20,30.24,30.19,30.15,10,10,5,16,7,21,0.00,4,Fog,213
2013-11-16,61,49,36,39,34,24,100,68,36,30.34,30.29,30.22,10,8,2,14,5,20,0.00,3,Fog,257
2013-11-17,58,47,35,58,48,34,100,83,66,30.32,30.16,29.86,10,3,0,13,3,16,0.21,7,Fog-Rain,151
2013-11-18,66,58,49,63,51,30,100,71,42,29.84,29.66,29.58,10,6,0,30,12,39,0.46,5,Fog-Rain,208
2013-11-19,50,41,32,28,21,17,51,42,33,30.29,29.98,29.70,10,10,10,24,13,32,0.00,1,,314
2013-11-20,43,34,25,15,12,7,57,40,22,30.63,30.51,30.32,10,10,10,17,7,23,0.00,3,,343
2013-11-21,48,36,24,31,20,15,74,50,26,30.64,30.56,30.41,10,10,9,9,2,18,0.00,4,,255
2013-11-22,52,46,40,50,44,33,96,81,65,30.38,30.10,29.84,10,7,2,12,3,15,0.18,8,Rain,204
2013-11-23,51,41,31,46,24,10,93,60,27,29.92,29.86,29.83,10,10,6,24,13,36,0.00,4,,300
2013-11-24,31,26,21,11,1,-7,52,38,23,30.23,30.00,29.84,10,10,10,36,19,48,0.00,1,,304
2013-11-25,34,26,18,22,2,-10,63,40,17,30.39,30.34,30.25,10,10,10,18,9,26,0.00,2,,270
2013-11-26,45,40,34,41,29,16,100,68,36,30.34,30.23,30.02,10,7,2,15,6,22,0.22,7,Rain,208
2013-11-27,63,50,37,61,51,31,100,88,76,30.00,29.48,29.24,10,4,0,36,17,49,3.12,8,Rain,180
2013-11-28,38,32,25,29,14,5,76,54,32,30.46,30.09,29.57,10,10,10,26,14,36,0.00,3,,285
2013-11-29,37,30,22,14,10,3,55,45,35,30.74,30.58,30.46,10,10,10,14,7,18,0.00,4,,317
2013-11-30,34,26,18,24,14,4,78,59,40,30.79,30.68,30.45,10,10,10,10,4,13,0.00,3,,356